NORTHERN QUEENS  -  Freeze Warning Freeze Warning        SOUTHERN QUEENS  -  Freeze Warning Freeze Warning      

Active alerts

Northern Queens
  Details for Northern Queens Freeze Warning
Southern Queens
  Details for Southern Queens Freeze Warning


WXM80 ListenWXM80 Stop

You find our weather info also at:

UK Metoffice

WeatherCloud

Weather Underground

Northeastern Weather Network

AWEKAS

Citizen Weather Observer Program (CWOP)

HAMweather, WeatherForYou, PWS Weather


Weather Underground History page Text

Daily Summary for December 26, 2017 Units:  Metric    English   Both
« Previous Day
Next Day »
Daily Weekly Monthly Yearly Custom
  High: Low: Average:
Temperature: -1.6 °C -4.3 °C -2.9 °C
Dew Point: -9.9 °C -13.4 °C -12.5 °C
Humidity: 56 % 43 % 48 %
Wind Speed: 19.6 km/h 0.6 km/h 9 km/h
Wind Gust: 37 km/h - -
Wind:- - West
Pressure: 1031 hPa 1022.9 hPa -
Precipitation: 0 mm    
Historical Graphs
 
 
Tabular Data for December 26, 2017
Time Temperature Dew Point Pressure Wind Wind Speed Wind Gust Humidity Rainfall Rate (Hourly)
00:03 -1.6 °C -9.9 °C 1022.9 hPa SW 19.3 km/h 31.5 km/h 53 % 0 mm
00:08 -1.6 °C -10.2 °C 1022.9 hPa West 19.2 km/h 31.5 km/h 52 % 0 mm
00:13 -1.7 °C -10.5 °C 1022.9 hPa NW 12.7 km/h 31.5 km/h 51 % 0 mm
00:16 -1.7 °C -10.2 °C 1022.9 hPa West 13.8 km/h 14.8 km/h 52 % 0 mm
00:17 -1.7 °C -10.2 °C 1022.9 hPa SW 11.7 km/h 29.6 km/h 52 % 0 mm
00:22 -1.7 °C -10.1 °C 1022.9 hPa WSW 14 km/h 24.1 km/h 53 % 0 mm
00:23 -1.7 °C -10.1 °C 1022.9 hPa SSW 8 km/h 24.1 km/h 53 % 0 mm
00:28 -1.8 °C -10.6 °C 1022.9 hPa West 13.5 km/h 33.3 km/h 51 % 0 mm
00:31 -1.8 °C -10.6 °C 1022.9 hPa WSW 19.3 km/h 33.3 km/h 51 % 0 mm
00:34 -1.8 °C -10.6 °C 1022.9 hPa West 18.3 km/h 24.1 km/h 51 % 0 mm
00:39 -1.8 °C -10.7 °C 1022.9 hPa NW 14.8 km/h 31.5 km/h 51 % 0 mm
00:45 -1.8 °C -10.7 °C 1022.9 hPa West 12.7 km/h 37 km/h 51 % 0 mm
00:46 -1.8 °C -10.9 °C 1022.9 hPa WSW 11.4 km/h 27.4 km/h 50 % 0 mm
00:51 -1.9 °C -10.7 °C 1022.9 hPa SW 10.5 km/h 14.8 km/h 51 % 0 mm
00:55 -1.9 °C -10.7 °C 1022.9 hPa WSW 9.3 km/h 24.1 km/h 51 % 0 mm
01:00 -1.9 °C -10.7 °C 1022.9 hPa WSW 13.4 km/h 25.9 km/h 51 % 0 mm
01:05 -1.9 °C -10.5 °C 1023.2 hPa WSW 14.3 km/h 24.1 km/h 52 % 0 mm
01:06 -1.9 °C -10.2 °C 1023.6 hPa SW 12.2 km/h 18.5 km/h 53 % 0 mm
01:11 -1.9 °C -10.5 °C 1023.6 hPa NW 13 km/h 27.4 km/h 52 % 0 mm
01:12 -1.9 °C -10.5 °C 1023.2 hPa NW 15 km/h 27.8 km/h 52 % 0 mm
01:17 -2 °C -10.6 °C 1023.6 hPa West 15.6 km/h 24.1 km/h 52 % 0 mm
01:22 -2 °C -10.3 °C 1023.2 hPa West 14 km/h 24.1 km/h 53 % 0 mm
01:25 -2 °C -10.6 °C 1023.2 hPa West 14.6 km/h 24.1 km/h 52 % 0 mm
01:31 -2.1 °C -10.6 °C 1023.2 hPa West 12.9 km/h 24.1 km/h 52 % 0 mm
01:32 -2.1 °C -10.6 °C 1023.2 hPa WNW 14.8 km/h 24.1 km/h 52 % 0 mm
01:37 -2.1 °C -10.4 °C 1023.6 hPa WNW 7.6 km/h 16.7 km/h 53 % 0 mm
01:40 -2.1 °C -10.1 °C 1023.2 hPa West 12.1 km/h 29.6 km/h 54 % 0 mm
01:45 -2.1 °C -10.4 °C 1023.6 hPa West 12.2 km/h 22.2 km/h 53 % 0 mm
01:48 -2.1 °C -10.2 °C 1023.6 hPa West 8.9 km/h 20.9 km/h 54 % 0 mm
01:51 -2.1 °C -10.4 °C 1023.6 hPa WSW 12.6 km/h 20.9 km/h 53 % 0 mm
01:54 -2.1 °C -10.4 °C 1023.6 hPa WNW 4.3 km/h 9.3 km/h 53 % 0 mm
01:59 -2.2 °C -10.7 °C 1023.2 hPa WNW 13.4 km/h 27.8 km/h 52 % 0 mm
02:04 -2.2 °C -10.8 °C 1023.6 hPa SW 18.5 km/h 25.9 km/h 52 % 0 mm
02:06 -2.2 °C -10.8 °C 1023.6 hPa WNW 15.9 km/h 31.5 km/h 52 % 0 mm
02:09 -2.2 °C -10.8 °C 1023.6 hPa West 8 km/h 13 km/h 52 % 0 mm
02:13 -2.2 °C -11 °C 1023.6 hPa WNW 15 km/h 25.9 km/h 51 % 0 mm
02:18 -2.2 °C -11.3 °C 1023.6 hPa West 13.2 km/h 24.1 km/h 50 % 0 mm
02:23 -2.3 °C -11.8 °C 1023.9 hPa SW 14.6 km/h 22.2 km/h 48 % 0 mm
02:28 -2.3 °C -11.9 °C 1023.9 hPa NNW 13.2 km/h 24.1 km/h 48 % 0 mm
02:33 -2.3 °C -11.6 °C 1024.3 hPa WSW 10.9 km/h 22.5 km/h 49 % 0 mm
02:35 -2.3 °C -11.9 °C 1023.9 hPa WNW 5.1 km/h 22.2 km/h 48 % 0 mm
02:40 -2.4 °C -11.9 °C 1023.9 hPa West 16.1 km/h 29.6 km/h 48 % 0 mm
02:45 -2.4 °C -12.2 °C 1023.9 hPa SW 9.8 km/h 24.1 km/h 47 % 0 mm
02:46 -2.4 °C -12 °C 1023.9 hPa WNW 13.7 km/h 27.4 km/h 48 % 0 mm
02:51 -2.4 °C -12 °C 1023.9 hPa West 13.7 km/h 24.1 km/h 48 % 0 mm
02:56 -2.5 °C -11.8 °C 1023.9 hPa NW 11.4 km/h 24.1 km/h 49 % 0 mm
02:58 -2.5 °C -11.8 °C 1024.3 hPa WSW 8 km/h 18.5 km/h 49 % 0 mm
03:03 -2.5 °C -11.8 °C 1024.3 hPa WSW 9.8 km/h 22.5 km/h 49 % 0 mm
03:04 -2.5 °C -12 °C 1024.3 hPa NW 13 km/h 25.7 km/h 48 % 0 mm
03:09 -2.6 °C -12.3 °C 1024.3 hPa WNW 9.5 km/h 19.3 km/h 47 % 0 mm
03:10 -2.6 °C -12.3 °C 1024.3 hPa West 10.3 km/h 18.5 km/h 47 % 0 mm
03:15 -2.6 °C -12.4 °C 1024.6 hPa SW 8.7 km/h 18.5 km/h 47 % 0 mm
03:19 -2.6 °C -12.4 °C 1024.6 hPa West 14.6 km/h 25.9 km/h 47 % 0 mm
03:24 -2.7 °C -12.7 °C 1024.6 hPa WNW 19.6 km/h 29.6 km/h 46 % 0 mm
03:28 -2.7 °C -12.7 °C 1024.6 hPa West 14.2 km/h 24.1 km/h 46 % 0 mm
03:31 -2.7 °C -12.4 °C 1024.6 hPa SW 10.6 km/h 18.5 km/h 47 % 0 mm
03:36 -2.7 °C -12.5 °C 1024.3 hPa West 14 km/h 30.6 km/h 47 % 0 mm
03:41 -2.7 °C -12.8 °C 1024.6 hPa WNW 16.4 km/h 22.2 km/h 46 % 0 mm
03:46 -2.8 °C -12.6 °C 1024.3 hPa West 7.4 km/h 18.5 km/h 47 % 0 mm
03:48 -2.8 °C -12.3 °C 1024.3 hPa WSW 12.6 km/h 20.9 km/h 48 % 0 mm
03:53 -2.8 °C -12.6 °C 1024.3 hPa WSW 16.1 km/h 27.8 km/h 47 % 0 mm
03:54 -2.8 °C -12.9 °C 1024.3 hPa West 14.5 km/h 24.1 km/h 46 % 0 mm
03:59 -2.8 °C -12.9 °C 1024.3 hPa West 13.7 km/h 20.9 km/h 46 % 0 mm
04:00 -2.8 °C -12.9 °C 1024.3 hPa WNW 14.8 km/h 25.7 km/h 46 % 0 mm
04:05 -2.9 °C -12.9 °C 1024.3 hPa West 15 km/h 25.7 km/h 46 % 0 mm
04:07 -2.9 °C -12.9 °C 1024.6 hPa WNW 11.3 km/h 22.5 km/h 46 % 0 mm
04:12 -2.9 °C -12.9 °C 1024.6 hPa WNW 5 km/h 11.1 km/h 46 % 0 mm
04:14 -2.9 °C -13.2 °C 1024.6 hPa WSW 7.7 km/h 13 km/h 45 % 0 mm
04:19 -2.9 °C -13.2 °C 1024.6 hPa West 15.1 km/h 20.4 km/h 45 % 0 mm
04:22 -3 °C -13 °C 1024.6 hPa WNW 15.8 km/h 33.3 km/h 46 % 0 mm
04:26 -3 °C -13 °C 1024.6 hPa NW 8.9 km/h 20.4 km/h 46 % 0 mm
04:29 -3 °C -12.7 °C 1024.6 hPa WSW 7.7 km/h 20.4 km/h 47 % 0 mm
04:34 -3.1 °C -12.8 °C 1024.6 hPa SSW 7.1 km/h 16.7 km/h 47 % 0 mm
04:35 -3.1 °C -12.8 °C 1024.6 hPa NW 10.1 km/h 22.2 km/h 47 % 0 mm
04:40 -3.1 °C -13.1 °C 1024.3 hPa SW 15.4 km/h 22.2 km/h 46 % 0 mm
04:43 -3.1 °C -13.1 °C 1024.6 hPa SW 15.9 km/h 19.3 km/h 46 % 0 mm
04:49 -3.1 °C -12.8 °C 1024.6 hPa WNW 9.8 km/h 20.4 km/h 47 % 0 mm
04:50 -3.2 °C -12.9 °C 1024.6 hPa West 9.2 km/h 18.5 km/h 47 % 0 mm
04:55 -3.2 °C -12.9 °C 1024.6 hPa WSW 13.5 km/h 13.5 km/h 47 % 0 mm
04:57 -3.2 °C -12.9 °C 1024.6 hPa WNW 17.1 km/h 24.1 km/h 47 % 0 mm
05:02 -3.1 °C -12.8 °C 1024.9 hPa WSW 11.6 km/h 25.9 km/h 47 % 0 mm
05:07 -3.2 °C -12.9 °C 1024.9 hPa NW 10.5 km/h 22.2 km/h 47 % 0 mm
05:08 -3.2 °C -12.9 °C 1024.9 hPa WNW 10.1 km/h 22.2 km/h 47 % 0 mm
05:09 -3.1 °C -12.8 °C 1024.9 hPa WSW 5.5 km/h 18.5 km/h 47 % 0 mm
05:14 -3.2 °C -12.9 °C 1024.9 hPa WSW 11.3 km/h 27.8 km/h 47 % 0 mm
05:15 -3.2 °C -12.9 °C 1024.9 hPa SW 11.1 km/h 16.7 km/h 47 % 0 mm
05:20 -3.2 °C -12.9 °C 1024.9 hPa WNW 7.9 km/h 18.5 km/h 47 % 0 mm
05:24 -3.2 °C -12.9 °C 1024.9 hPa West 5.3 km/h 24.1 km/h 47 % 0 mm
05:26 -3.2 °C -12.9 °C 1025.3 hPa WSW 16.4 km/h 24.1 km/h 47 % 0 mm
05:31 -3.3 °C -13.3 °C 1025.3 hPa West 10.9 km/h 24.1 km/h 46 % 0 mm
05:36 -3.3 °C -13 °C 1025.3 hPa SW 9.8 km/h 25.9 km/h 47 % 0 mm
05:40 -3.3 °C -12.7 °C 1025.3 hPa SW 10.8 km/h 18.5 km/h 48 % 0 mm
05:45 -3.3 °C -13.1 °C 1025.3 hPa NW 9.8 km/h 25.9 km/h 47 % 0 mm
05:50 -3.3 °C -13.1 °C 1025.6 hPa NNW 13.4 km/h 22.2 km/h 47 % 0 mm
05:51 -3.4 °C -13.1 °C 1025.6 hPa West 9.5 km/h 24.1 km/h 47 % 0 mm
05:56 -3.4 °C -12.9 °C 1025.6 hPa WSW 9.7 km/h 27.8 km/h 48 % 0 mm
05:57 -3.4 °C -12.9 °C 1025.6 hPa WSW 7.9 km/h 18.5 km/h 48 % 0 mm
05:59 -3.4 °C -12.9 °C 1025.6 hPa WSW 10.9 km/h 22.5 km/h 48 % 0 mm
06:03 -3.5 °C -12.9 °C 1025.6 hPa SW 11.4 km/h 20.4 km/h 48 % 0 mm
06:08 -3.5 °C -12.7 °C 1026 hPa WNW 9.5 km/h 16.7 km/h 49 % 0 mm
06:11 -3.5 °C -12.9 °C 1026 hPa NW 7.9 km/h 14.8 km/h 48 % 0 mm
06:16 -3.5 °C -12.7 °C 1026 hPa NW 9.2 km/h 16.7 km/h 49 % 0 mm
06:19 -3.6 °C -13 °C 1026 hPa WSW 13.8 km/h 20.4 km/h 48 % 0 mm
06:22 -3.6 °C -13 °C 1026 hPa WSW 7.1 km/h 27.4 km/h 48 % 0 mm
06:23 -3.6 °C -12.7 °C 1026 hPa SW 14.8 km/h 27.8 km/h 49 % 0 mm
06:28 -3.6 °C -13 °C 1026 hPa West 4.8 km/h 12.9 km/h 48 % 0 mm
06:30 -3.6 °C -12.8 °C 1026.3 hPa WNW 3.1 km/h 7.4 km/h 49 % 0 mm
06:35 -3.6 °C -12.8 °C 1026.3 hPa WNW 13.7 km/h 22.2 km/h 49 % 0 mm
06:36 -3.6 °C -12.8 °C 1026.3 hPa West 12.9 km/h 22.5 km/h 49 % 0 mm
06:41 -3.6 °C -13.1 °C 1026.3 hPa West 11.3 km/h 33.8 km/h 48 % 0 mm
06:42 -3.6 °C -13.1 °C 1026.6 hPa WSW 15 km/h 27.8 km/h 48 % 0 mm
06:45 -3.7 °C -13.1 °C 1026.6 hPa SSW 9.2 km/h 20.9 km/h 48 % 0 mm
06:50 -3.6 °C -12.8 °C 1026.6 hPa WSW 14.8 km/h 20.9 km/h 49 % 0 mm
06:53 -3.6 °C -13.1 °C 1026.6 hPa WSW 9.5 km/h 13 km/h 48 % 0 mm
06:55 -3.6 °C -13.1 °C 1027 hPa SW 10.1 km/h 20.4 km/h 48 % 0 mm
07:00 -3.6 °C -13 °C 1027 hPa WNW 5.5 km/h 11.3 km/h 48 % 0 mm
07:05 -3.6 °C -13.1 °C 1027 hPa WNW 13.7 km/h 24.1 km/h 48 % 0 mm
07:09 -3.6 °C -13.1 °C 1027.3 hPa WSW 12.4 km/h 20.4 km/h 48 % 0 mm
07:12 -3.6 °C -13.1 °C 1027.3 hPa West 15.6 km/h 24.1 km/h 48 % 0 mm
07:17 -3.7 °C -13.1 °C 1027.3 hPa SW 11.7 km/h 14.8 km/h 48 % 0 mm
07:23 -3.7 °C -13.4 °C 1027.3 hPa SW 9 km/h 16.7 km/h 47 % 0 mm
07:24 -3.7 °C -13.4 °C 1027.3 hPa WNW 10 km/h 14.8 km/h 47 % 0 mm
07:29 -3.7 °C -12.8 °C 1027.3 hPa West 12.2 km/h 19.3 km/h 49 % 0 mm
07:30 -3.7 °C -12.9 °C 1027.3 hPa SW 8.7 km/h 18.5 km/h 49 % 0 mm
07:35 -3.7 °C -13.2 °C 1027.3 hPa West 8.4 km/h 27.8 km/h 48 % 0 mm
07:40 -3.7 °C -12.9 °C 1027.7 hPa SW 12.9 km/h 27.8 km/h 49 % 0 mm
07:41 -3.7 °C -12.9 °C 1027.7 hPa West 11.3 km/h 27.4 km/h 49 % 0 mm
07:46 -3.7 °C -12.9 °C 1027.7 hPa West 16.4 km/h 24.1 km/h 49 % 0 mm
07:48 -3.7 °C -12.9 °C 1027.7 hPa NW 11.3 km/h 25.9 km/h 49 % 0 mm
07:53 -3.7 °C -12.9 °C 1027.7 hPa NW 14.5 km/h 25.7 km/h 49 % 0 mm
07:58 -3.8 °C -13.2 °C 1028 hPa West 14.8 km/h 20.4 km/h 48 % 0 mm
08:03 -3.8 °C -12.9 °C 1028 hPa WSW 9.5 km/h 29.6 km/h 49 % 0 mm
08:08 -3.7 °C -12.9 °C 1028 hPa WSW 11.7 km/h 18.5 km/h 49 % 0 mm
08:13 -3.7 °C -12.8 °C 1028 hPa West 5.6 km/h 9.7 km/h 49 % 0 mm
08:16 -3.7 °C -12.8 °C 1028.3 hPa SW 7.1 km/h 18.5 km/h 49 % 0 mm
08:19 -3.7 °C -12.8 °C 1028.3 hPa West 13 km/h 22.2 km/h 49 % 0 mm
08:23 -3.6 °C -12.8 °C 1028.3 hPa WNW 7.4 km/h 14.5 km/h 49 % 0 mm
08:24 -3.6 °C -12.6 °C 1028 hPa West 9 km/h 14.8 km/h 50 % 0 mm
08:29 -3.6 °C -12.6 °C 1028.3 hPa WNW 9.8 km/h 22.2 km/h 50 % 0 mm
08:33 -3.6 °C -12.8 °C 1028.3 hPa NW 9.5 km/h 22.2 km/h 49 % 0 mm
08:34 -3.6 °C -12.8 °C 1028.3 hPa WSW 9.5 km/h 16.7 km/h 49 % 0 mm
08:39 -3.6 °C -12.7 °C 1028.3 hPa WSW 11.9 km/h 27.8 km/h 49 % 0 mm
08:44 -3.6 °C -12.7 °C 1028.3 hPa West 7.4 km/h 14.8 km/h 49 % 0 mm
08:49 -3.5 °C -12.9 °C 1028.3 hPa West 6 km/h 18.5 km/h 48 % 0 mm
08:50 -3.5 °C -12.9 °C 1028.3 hPa West 7.7 km/h 19.3 km/h 48 % 0 mm
08:55 -3.4 °C -12.9 °C 1028.7 hPa West 8.9 km/h 18.5 km/h 48 % 0 mm
08:59 -3.4 °C -13.1 °C 1028.3 hPa WNW 8.5 km/h 22.2 km/h 47 % 0 mm
09:04 -3.4 °C -12.8 °C 1028.7 hPa WSW 7.7 km/h 22.2 km/h 48 % 0 mm
09:06 -3.3 °C -12.8 °C 1028.7 hPa WSW 11.3 km/h 19.3 km/h 48 % 0 mm
09:12 -3.3 °C -12.7 °C 1028.7 hPa WSW 11.3 km/h 18.5 km/h 48 % 0 mm
09:16 -3.3 °C -12.7 °C 1028.7 hPa West 14.8 km/h 29.6 km/h 48 % 0 mm
09:18 -3.3 °C -12.7 °C 1028.7 hPa WSW 6.9 km/h 18.5 km/h 48 % 0 mm
09:23 -3.2 °C -12.7 °C 1028.7 hPa WNW 12.9 km/h 22.2 km/h 48 % 0 mm
09:27 -3.2 °C -12.9 °C 1028.7 hPa WNW 8.9 km/h 18.5 km/h 47 % 0 mm
09:29 -3.2 °C -12.7 °C 1028.7 hPa WNW 7.1 km/h 16.7 km/h 48 % 0 mm
09:34 -3.2 °C -12.7 °C 1029 hPa West 10.5 km/h 18.5 km/h 48 % 0 mm
09:35 -3.2 °C -12.7 °C 1029 hPa WSW 4.2 km/h 18.5 km/h 48 % 0 mm
09:40 -3.1 °C -12.3 °C 1029 hPa WSW 12.4 km/h 22.2 km/h 49 % 0 mm
09:43 -3.1 °C -12.3 °C 1028.7 hPa WSW 8.2 km/h 22.2 km/h 49 % 0 mm
09:48 -3.1 °C -12.3 °C 1029 hPa WSW 15 km/h 31.5 km/h 49 % 0 mm
09:49 -3.1 °C -12.3 °C 1028.7 hPa WSW 18.8 km/h 24.1 km/h 49 % 0 mm
09:54 -3 °C -12.2 °C 1028.7 hPa SW 9 km/h 18.5 km/h 49 % 0 mm
09:58 -2.9 °C -12.7 °C 1028.7 hPa West 5.3 km/h 16.7 km/h 47 % 0 mm
10:00 -2.9 °C -12.7 °C 1028.7 hPa West 14 km/h 24.1 km/h 47 % 0 mm
10:05 -2.8 °C -12.3 °C 1028.7 hPa WNW 12.7 km/h 22.2 km/h 48 % 0 mm
10:06 -2.8 °C -12.3 °C 1028.7 hPa West 11.3 km/h 24.1 km/h 48 % 0 mm
10:11 -2.7 °C -12.2 °C 1028.7 hPa West 7.2 km/h 25.9 km/h 48 % 0 mm
10:16 -2.5 °C -12 °C 1029 hPa West 11.3 km/h 20.9 km/h 48 % 0 mm
10:19 -2.4 °C -12.2 °C 1028.7 hPa WSW 9.5 km/h 18.5 km/h 47 % 0 mm
10:23 -2.3 °C -12.1 °C 1028.7 hPa West 13.5 km/h 24.1 km/h 47 % 0 mm
10:28 -2.3 °C -12.4 °C 1028.7 hPa WNW 11.9 km/h 18.5 km/h 46 % 0 mm
10:32 -2.3 °C -12.7 °C 1029 hPa West 8.2 km/h 18.5 km/h 45 % 0 mm
10:36 -2.3 °C -12.7 °C 1028.7 hPa West 7.6 km/h 22.2 km/h 45 % 0 mm
10:38 -2.3 °C -12.7 °C 1028.7 hPa WSW 13.5 km/h 25.9 km/h 45 % 0 mm
10:43 -2.4 °C -12.7 °C 1028.7 hPa WSW 10.9 km/h 14.8 km/h 45 % 0 mm
10:44 -2.4 °C -12.8 °C 1028.7 hPa WNW 10.1 km/h 19.3 km/h 45 % 0 mm
10:49 -2.4 °C -12.7 °C 1028.7 hPa SW 8.4 km/h 18.5 km/h 45 % 0 mm
10:51 -2.4 °C -12.7 °C 1028.7 hPa WNW 7.9 km/h 18.5 km/h 45 % 0 mm
10:56 -2.3 °C -12.7 °C 1028.7 hPa WNW 7.1 km/h 9.7 km/h 45 % 0 mm
10:58 -2.3 °C -12.3 °C 1028.7 hPa NW 4 km/h 11.1 km/h 46 % 0 mm
11:03 -2.3 °C -12.6 °C 1028.7 hPa NW 10.9 km/h 18.5 km/h 45 % 0 mm
11:05 -2.3 °C -12.6 °C 1028.7 hPa WSW 12.7 km/h 16.1 km/h 45 % 0 mm
11:06 -2.3 °C -12.9 °C 1028.7 hPa NW 7.6 km/h 22.2 km/h 44 % 0 mm
11:11 -2.3 °C -12.9 °C 1028.3 hPa West 12.6 km/h 19.3 km/h 44 % 0 mm
11:15 -2.3 °C -12.9 °C 1028.3 hPa West 10 km/h 24.1 km/h 44 % 0 mm
11:20 -2.3 °C -12.9 °C 1028.3 hPa WNW 5.3 km/h 13 km/h 44 % 0 mm
11:21 -2.3 °C -12.6 °C 1028.3 hPa WNW 9.7 km/h 16.7 km/h 45 % 0 mm
11:26 -2.3 °C -12.9 °C 1028.3 hPa NW 11.7 km/h 20.9 km/h 44 % 0 mm
11:29 -2.3 °C -12.6 °C 1028 hPa WSW 7.6 km/h 13 km/h 45 % 0 mm
11:33 -2.3 °C -12.9 °C 1028 hPa WSW 10.1 km/h 18.5 km/h 44 % 0 mm
11:37 -2.3 °C -12.6 °C 1028 hPa WSW 9.5 km/h 22.2 km/h 45 % 0 mm
11:42 -2.3 °C -12.9 °C 1028 hPa West 9 km/h 17.7 km/h 44 % 0 mm
11:43 -2.3 °C -12.9 °C 1028 hPa WSW 6.8 km/h 16.7 km/h 44 % 0 mm
11:48 -2.3 °C -12.7 °C 1027.7 hPa SSW 11.9 km/h 25.9 km/h 45 % 0 mm
11:49 -2.3 °C -12.9 °C 1027.7 hPa WSW 6.9 km/h 18.5 km/h 44 % 0 mm
11:53 -2.3 °C -12.7 °C 1027.7 hPa SW 9.2 km/h 19.3 km/h 45 % 0 mm
11:58 -2.3 °C -12.9 °C 1027.7 hPa West 11.1 km/h 18.5 km/h 44 % 0 mm
11:59 -2.3 °C -12.6 °C 1027.7 hPa WSW 5.1 km/h 16.7 km/h 45 % 0 mm
12:00 -2.3 °C -12.6 °C 1027.7 hPa WSW 8.5 km/h 22.2 km/h 45 % 0 mm
12:05 -2.2 °C -12.5 °C 1027.7 hPa West 11.1 km/h 22.5 km/h 45 % 0 mm
12:10 -2.2 °C -12.8 °C 1027.7 hPa West 12.7 km/h 20.9 km/h 44 % 0 mm
12:15 -2.3 °C -13.2 °C 1027.7 hPa SW 10.5 km/h 22.2 km/h 43 % 0 mm
12:20 -2.4 °C -13 °C 1027.7 hPa West 6.9 km/h 13 km/h 44 % 0 mm
12:21 -2.4 °C -12.7 °C 1027.7 hPa West 9 km/h 13 km/h 45 % 0 mm
12:27 -2.4 °C -12.8 °C 1027.7 hPa WNW 9.5 km/h 22.2 km/h 45 % 0 mm
12:30 -2.5 °C -12.8 °C 1027.7 hPa West 9.8 km/h 20.9 km/h 45 % 0 mm
12:35 -2.6 °C -12.9 °C 1027.7 hPa WNW 11.7 km/h 20.9 km/h 45 % 0 mm
12:40 -2.6 °C -12.9 °C 1027.3 hPa WNW 3.4 km/h 11.1 km/h 45 % 0 mm
12:41 -2.6 °C -12.7 °C 1027.3 hPa WSW 4.5 km/h 11.1 km/h 46 % 0 mm
12:46 -2.6 °C -12.3 °C 1027.3 hPa West 9.7 km/h 13 km/h 47 % 0 mm
12:48 -2.6 °C -12.6 °C 1027.7 hPa WNW 7.4 km/h 16.7 km/h 46 % 0 mm
12:53 -2.6 °C -12.6 °C 1027.3 hPa West 6.9 km/h 14.8 km/h 46 % 0 mm
12:54 -2.6 °C -12.9 °C 1027.7 hPa SW 7.7 km/h 14.8 km/h 45 % 0 mm
12:59 -2.6 °C -12.9 °C 1027.3 hPa NW 9.7 km/h 16.7 km/h 45 % 0 mm
13:04 -2.5 °C -12.6 °C 1027.3 hPa WNW 3.7 km/h 11.1 km/h 46 % 0 mm
13:07 -2.4 °C -12.5 °C 1027.3 hPa West 9.7 km/h 14.5 km/h 46 % 0 mm
13:12 -2.3 °C -12.7 °C 1027.7 hPa WNW 8.7 km/h 14.8 km/h 45 % 0 mm
13:18 -2.3 °C -12.9 °C 1027.7 hPa WNW 11.7 km/h 18.5 km/h 44 % 0 mm
13:23 -2.3 °C -12.7 °C 1027.3 hPa SSW 8.7 km/h 18.5 km/h 45 % 0 mm
13:24 -2.3 °C -12.7 °C 1027.3 hPa West 5.8 km/h 18.5 km/h 45 % 0 mm
13:26 -2.3 °C -12.7 °C 1027.3 hPa WSW 6 km/h 7.4 km/h 45 % 0 mm
13:29 -2.3 °C -12.3 °C 1027.3 hPa SW 10.9 km/h 17.7 km/h 46 % 0 mm
13:34 -2.2 °C -12.5 °C 1027.3 hPa NW 13.2 km/h 20.4 km/h 45 % 0 mm
13:36 -2.2 °C -12.5 °C 1027.3 hPa WSW 9.2 km/h 14.5 km/h 45 % 0 mm
13:41 -2.2 °C -12.8 °C 1027.3 hPa West 12.7 km/h 18.5 km/h 44 % 0 mm
13:42 -2.2 °C -12.8 °C 1027.3 hPa WNW 10.9 km/h 22.2 km/h 44 % 0 mm
13:47 -2.1 °C -12.2 °C 1027.3 hPa WNW 9.8 km/h 18.5 km/h 46 % 0 mm
13:52 -2.1 °C -12.4 °C 1027.3 hPa NW 10 km/h 11.1 km/h 45 % 0 mm
13:53 -2.1 °C -12.4 °C 1027.3 hPa NW 8.7 km/h 14.8 km/h 45 % 0 mm
13:58 -2 °C -12.7 °C 1027.3 hPa WSW 5.3 km/h 11.3 km/h 44 % 0 mm
13:59 -2 °C -12.7 °C 1027.3 hPa WSW 5.3 km/h 8 km/h 44 % 0 mm
14:01 -2 °C -12.4 °C 1027.3 hPa NW 6.9 km/h 14.8 km/h 45 % 0 mm
14:03 -2 °C -12.4 °C 1027.3 hPa WNW 11.4 km/h 18.5 km/h 45 % 0 mm
14:08 -1.9 °C -12.6 °C 1027.3 hPa West 6.9 km/h 18.5 km/h 44 % 0 mm
14:11 -1.9 °C -12.6 °C 1027.3 hPa West 9 km/h 18.5 km/h 44 % 0 mm
14:16 -2 °C -12.4 °C 1027.3 hPa SW 9 km/h 18.5 km/h 45 % 0 mm
14:21 -2 °C -12.1 °C 1027.7 hPa NW 5.6 km/h 13 km/h 46 % 0 mm
14:26 -2.1 °C -12.2 °C 1027.3 hPa WNW 10.5 km/h 16.7 km/h 46 % 0 mm
14:29 -2.1 °C -12.2 °C 1027.3 hPa WSW 8.9 km/h 18.5 km/h 46 % 0 mm
14:34 -2.2 °C -12.8 °C 1027.3 hPa West 10.9 km/h 20.4 km/h 44 % 0 mm
14:35 -2.2 °C -12.8 °C 1027.3 hPa West 9.3 km/h 18.5 km/h 44 % 0 mm
14:36 -2.2 °C -12.5 °C 1027.3 hPa SW 9.3 km/h 18.5 km/h 45 % 0 mm
14:41 -2.2 °C -12.8 °C 1027.3 hPa WNW 7.6 km/h 11.1 km/h 44 % 0 mm
14:43 -2.3 °C -12.9 °C 1027.3 hPa WNW 7.1 km/h 18.5 km/h 44 % 0 mm
14:48 -2.3 °C -12.6 °C 1027.3 hPa West 5.5 km/h 14.8 km/h 45 % 0 mm
14:51 -2.3 °C -13.2 °C 1027.3 hPa WSW 11.6 km/h 22.2 km/h 43 % 0 mm
14:56 -2.3 °C -13.2 °C 1027.3 hPa WNW 7.4 km/h 16.7 km/h 43 % 0 mm
14:57 -2.3 °C -13.2 °C 1027.3 hPa West 6.4 km/h 16.7 km/h 43 % 0 mm
15:02 -2.4 °C -13.3 °C 1027.3 hPa WSW 9.2 km/h 18.5 km/h 43 % 0 mm
15:04 -2.4 °C -13.3 °C 1027.7 hPa West 7.7 km/h 13 km/h 43 % 0 mm
15:09 -2.4 °C -13.3 °C 1027.7 hPa WNW 6.6 km/h 11.1 km/h 43 % 0 mm
15:15 -2.4 °C -12.7 °C 1027.7 hPa SW 7.9 km/h 14.8 km/h 45 % 0 mm
15:16 -2.4 °C -12.7 °C 1027.7 hPa WNW 7.9 km/h 16.7 km/h 45 % 0 mm
15:22 -2.4 °C -13.1 °C 1027.7 hPa West 1.8 km/h 11.1 km/h 44 % 0 mm
15:25 -2.4 °C -13.1 °C 1027.7 hPa WSW 7.7 km/h 13 km/h 44 % 0 mm
15:26 -2.4 °C -13.1 °C 1027.7 hPa West 8.4 km/h 13 km/h 44 % 0 mm
15:31 -2.4 °C -13.1 °C 1027.7 hPa SW 6.1 km/h 14.8 km/h 44 % 0 mm
15:37 -2.5 °C -13.4 °C 1027.7 hPa WNW 7.7 km/h 18.5 km/h 43 % 0 mm
15:38 -2.5 °C -13.4 °C 1027.7 hPa WSW 7.4 km/h 14.8 km/h 43 % 0 mm
15:43 -2.6 °C -13.2 °C 1027.7 hPa WNW 7.4 km/h 12.9 km/h 44 % 0 mm
15:46 -2.6 °C -13.2 °C 1027.7 hPa West 8.5 km/h 14.8 km/h 44 % 0 mm
15:49 -2.6 °C -13.2 °C 1027.7 hPa WSW 6.3 km/h 18.5 km/h 44 % 0 mm
15:54 -2.6 °C -12.9 °C 1027.7 hPa West 6.4 km/h 13 km/h 45 % 0 mm
15:59 -2.6 °C -13.2 °C 1027.7 hPa West 8 km/h 14.5 km/h 44 % 0 mm
16:04 -2.6 °C -13.2 °C 1027.7 hPa WSW 3.4 km/h 18.5 km/h 44 % 0 mm
16:06 -2.6 °C -13.2 °C 1027.7 hPa WSW 6.8 km/h 16.7 km/h 44 % 0 mm
16:08 -2.6 °C -13.2 °C 1027.7 hPa WSW 10.9 km/h 16.7 km/h 44 % 0 mm
16:13 -2.7 °C -13.3 °C 1027.7 hPa WSW 5.3 km/h 24.1 km/h 44 % 0 mm
16:14 -2.7 °C -13.3 °C 1028 hPa WSW 6.6 km/h 13 km/h 44 % 0 mm
16:19 -2.7 °C -13 °C 1028 hPa WNW 10.1 km/h 16.7 km/h 45 % 0 mm
16:20 -2.7 °C -13 °C 1028 hPa West 9 km/h 16.7 km/h 45 % 0 mm
16:24 -2.7 °C -13.3 °C 1028 hPa WNW 5.6 km/h 14.5 km/h 44 % 0 mm
16:26 -2.7 °C -13.3 °C 1028 hPa West 9.7 km/h 14.5 km/h 44 % 0 mm
16:31 -2.7 °C -13.3 °C 1028 hPa West 4.8 km/h 11.3 km/h 44 % 0 mm
16:34 -2.8 °C -13.3 °C 1028 hPa WNW 6.4 km/h 14.8 km/h 44 % 0 mm
16:35 -2.8 °C -13.1 °C 1028 hPa SW 8.7 km/h 16.7 km/h 45 % 0 mm
16:40 -2.8 °C -13.1 °C 1028.3 hPa West 5.3 km/h 9.3 km/h 45 % 0 mm
16:43 -2.8 °C -13.1 °C 1028.3 hPa WNW 9.7 km/h 18.5 km/h 45 % 0 mm
16:48 -2.8 °C -13.1 °C 1028.3 hPa SW 6.4 km/h 12.9 km/h 45 % 0 mm
16:49 -2.8 °C -13.1 °C 1028.3 hPa WSW 8 km/h 12.9 km/h 45 % 0 mm
16:50 -2.8 °C -12.9 °C 1028 hPa WNW 7.1 km/h 14.8 km/h 46 % 0 mm
16:55 -2.8 °C -12.9 °C 1028.3 hPa West 4 km/h 7.4 km/h 46 % 0 mm
16:56 -2.8 °C -12.9 °C 1028.3 hPa WNW 4.2 km/h 7.4 km/h 46 % 0 mm
17:01 -2.9 °C -12.9 °C 1028.3 hPa WNW 9.3 km/h 16.7 km/h 46 % 0 mm
17:04 -2.9 °C -12.9 °C 1028.7 hPa West 8.7 km/h 14.8 km/h 46 % 0 mm
17:07 -2.9 °C -12.7 °C 1028.7 hPa West 8.5 km/h 17.7 km/h 47 % 0 mm
17:11 -2.9 °C -12.9 °C 1028.7 hPa West 6.3 km/h 14.8 km/h 46 % 0 mm
17:14 -2.9 °C -12.9 °C 1028.7 hPa WNW 10.1 km/h 20.9 km/h 46 % 0 mm
17:19 -2.9 °C -12.9 °C 1028.7 hPa NW 6.1 km/h 16.7 km/h 46 % 0 mm
17:22 -2.9 °C -12.9 °C 1029 hPa West 9.5 km/h 13 km/h 46 % 0 mm
17:27 -2.9 °C -12.7 °C 1029 hPa WSW 8.7 km/h 18.5 km/h 47 % 0 mm
17:28 -2.9 °C -12.7 °C 1029 hPa WNW 9 km/h 13 km/h 47 % 0 mm
17:29 -2.9 °C -12.7 °C 1028.7 hPa West 8.9 km/h 18.5 km/h 47 % 0 mm
17:34 -2.9 °C -12.9 °C 1029 hPa West 9.3 km/h 16.7 km/h 46 % 0 mm
17:36 -2.9 °C -13.2 °C 1029 hPa West 13.2 km/h 20.9 km/h 45 % 0 mm
17:41 -2.9 °C -13.2 °C 1029 hPa WNW 4.7 km/h 14.8 km/h 45 % 0 mm
17:45 -2.9 °C -12.9 °C 1029 hPa West 7.6 km/h 11.3 km/h 46 % 0 mm
17:47 -2.9 °C -12.9 °C 1029 hPa West 6.4 km/h 18.5 km/h 46 % 0 mm
17:49 -2.9 °C -12.7 °C 1029.3 hPa WSW 7.2 km/h 14.8 km/h 47 % 0 mm
17:54 -2.9 °C -12.9 °C 1029.3 hPa SW 9.7 km/h 20.4 km/h 46 % 0 mm
17:55 -3 °C -13 °C 1029.3 hPa WSW 9 km/h 18.5 km/h 46 % 0 mm
18:00 -3 °C -13.3 °C 1029.3 hPa WNW 14.3 km/h 20.4 km/h 45 % 0 mm
18:01 -3 °C -13.3 °C 1029.3 hPa WSW 8.5 km/h 18.5 km/h 45 % 0 mm
18:06 -3 °C -13 °C 1029.7 hPa WSW 8 km/h 18.5 km/h 46 % 0 mm
18:08 -3 °C -13 °C 1029.7 hPa NW 9 km/h 11.1 km/h 46 % 0 mm
18:13 -3 °C -13 °C 1029.7 hPa West 7.6 km/h 18.5 km/h 46 % 0 mm
18:14 -3 °C -13 °C 1029.7 hPa West 7.9 km/h 13 km/h 46 % 0 mm
18:15 -3 °C -13 °C 1029.7 hPa NW 4.5 km/h 13 km/h 46 % 0 mm
18:20 -3.1 °C -13.1 °C 1029.7 hPa SW 7.9 km/h 14.8 km/h 46 % 0 mm
18:21 -3.1 °C -12.8 °C 1029.7 hPa West 6.9 km/h 14.8 km/h 47 % 0 mm
18:26 -3.1 °C -13.1 °C 1029.7 hPa SW 9.8 km/h 20.4 km/h 46 % 0 mm
18:31 -3.1 °C -12.8 °C 1029.7 hPa West 7.1 km/h 14.5 km/h 47 % 0 mm
18:34 -3.1 °C -12.6 °C 1030 hPa SW 7.1 km/h 18.5 km/h 48 % 0 mm
18:39 -3.1 °C -12.8 °C 1029.7 hPa SW 13.4 km/h 16.7 km/h 47 % 0 mm
18:41 -3.1 °C -12.8 °C 1029.7 hPa WNW 6.8 km/h 20.4 km/h 47 % 0 mm
18:46 -3.1 °C -12.8 °C 1029.7 hPa SW 10 km/h 17.7 km/h 47 % 0 mm
18:50 -3.1 °C -12.8 °C 1029.7 hPa West 10.8 km/h 17.7 km/h 47 % 0 mm
18:55 -3.2 °C -13.2 °C 1030 hPa WSW 10.3 km/h 18.5 km/h 46 % 0 mm
18:56 -3.2 °C -13.2 °C 1030 hPa West 9.7 km/h 25.7 km/h 46 % 0 mm
19:00 -3.2 °C -13.2 °C 1029.7 hPa WSW 6.1 km/h 11.1 km/h 46 % 0 mm
19:02 -3.1 °C -12.8 °C 1029.7 hPa West 5.1 km/h 13 km/h 47 % 0 mm
19:07 -3.2 °C -12.9 °C 1029.7 hPa West 7.6 km/h 18.5 km/h 47 % 0 mm
19:12 -3.2 °C -12.9 °C 1029.7 hPa NW 5 km/h 11.1 km/h 47 % 0 mm
19:14 -3.2 °C -12.7 °C 1029.7 hPa West 6.3 km/h 12.9 km/h 48 % 0 mm
19:19 -3.2 °C -12.7 °C 1030 hPa NW 5.6 km/h 16.7 km/h 48 % 0 mm
19:25 -3.3 °C -12.7 °C 1029.7 hPa WSW 3.1 km/h 11.1 km/h 48 % 0 mm
19:26 -3.3 °C -12.7 °C 1029.7 hPa West 3.2 km/h 16.1 km/h 48 % 0 mm
19:28 -3.3 °C -12.7 °C 1029.7 hPa West 7.2 km/h 13 km/h 48 % 0 mm
19:33 -3.3 °C -12.7 °C 1029.7 hPa WNW 7.9 km/h 18.5 km/h 48 % 0 mm
19:38 -3.3 °C -12.7 °C 1029.7 hPa West 9.5 km/h 24.1 km/h 48 % 0 mm
19:39 -3.3 °C -12.8 °C 1029.7 hPa NW 5.1 km/h 14.8 km/h 48 % 0 mm
19:44 -3.3 °C -12.6 °C 1029.7 hPa WSW 8.2 km/h 18.5 km/h 49 % 0 mm
19:47 -3.3 °C -12.8 °C 1029.7 hPa West 8 km/h 14.8 km/h 48 % 0 mm
19:50 -3.3 °C -12.6 °C 1029.7 hPa WNW 5.3 km/h 13 km/h 49 % 0 mm
19:55 -3.3 °C -12.3 °C 1029.7 hPa West 2.9 km/h 18.5 km/h 50 % 0 mm
19:57 -3.4 °C -12.3 °C 1029.7 hPa WNW 3.1 km/h 14.8 km/h 50 % 0 mm
20:03 -3.4 °C -12.6 °C 1029.7 hPa West 6.6 km/h 16.7 km/h 49 % 0 mm
20:04 -3.4 °C -12.6 °C 1029.7 hPa West 5.6 km/h 11.1 km/h 49 % 0 mm
20:09 -3.4 °C -12.3 °C 1029.7 hPa WNW 2.6 km/h 9.7 km/h 50 % 0 mm
20:10 -3.4 °C -12.4 °C 1029.7 hPa West 4 km/h 9.3 km/h 50 % 0 mm
20:14 -3.4 °C -12.2 °C 1029.7 hPa WSW 3.2 km/h 5.6 km/h 51 % 0 mm
20:16 -3.4 °C -12.2 °C 1029.7 hPa West 3.2 km/h 5.6 km/h 51 % 0 mm
20:21 -3.5 °C -12.4 °C 1029.3 hPa WNW 2.9 km/h 11.1 km/h 50 % 0 mm
20:22 -3.5 °C -12.2 °C 1029.7 hPa WNW 4.5 km/h 18.5 km/h 51 % 0 mm
20:28 -3.6 °C -12.2 °C 1029.7 hPa NW 7.2 km/h 16.7 km/h 51 % 0 mm
20:32 -3.6 °C -12.5 °C 1029.7 hPa WNW 6 km/h 18.5 km/h 50 % 0 mm
20:36 -3.6 °C -12.2 °C 1030 hPa West 7.2 km/h 11.1 km/h 51 % 0 mm
20:41 -3.6 °C -12.3 °C 1029.7 hPa WNW 4.7 km/h 11.1 km/h 51 % 0 mm
20:42 -3.6 °C -12.3 °C 1029.7 hPa West 7.4 km/h 13 km/h 51 % 0 mm
20:47 -3.6 °C -12.3 °C 1030.4 hPa NW 4.7 km/h 7.4 km/h 51 % 0 mm
20:49 -3.6 °C -12.3 °C 1030.4 hPa West 3.4 km/h 5.6 km/h 51 % 0 mm
20:50 -3.6 °C -12.3 °C 1030.4 hPa WNW 4.8 km/h 7.4 km/h 51 % 0 mm
20:55 -3.7 °C -12.3 °C 1030.4 hPa WNW 5.8 km/h 9.3 km/h 51 % 0 mm
20:56 -3.7 °C -12.1 °C 1030.4 hPa WNW 6.6 km/h 11.1 km/h 52 % 0 mm
21:01 -3.7 °C -12.3 °C 1030.4 hPa NNW 5.5 km/h 6.4 km/h 51 % 0 mm
21:06 -3.7 °C -12.4 °C 1030.4 hPa WNW 3.2 km/h 14.5 km/h 51 % 0 mm
21:09 -3.7 °C -12.2 °C 1030.4 hPa West 3.7 km/h 7.4 km/h 52 % 0 mm
21:14 -3.8 °C -12.2 °C 1030.4 hPa NW 4.7 km/h 9.7 km/h 52 % 0 mm
21:18 -3.8 °C -12.2 °C 1030.4 hPa NW 7.4 km/h 9.3 km/h 52 % 0 mm
21:22 -3.8 °C -12.2 °C 1030.4 hPa West 3.7 km/h 13 km/h 52 % 0 mm
21:25 -3.8 °C -12.4 °C 1030.4 hPa West 4.3 km/h 6.4 km/h 51 % 0 mm
21:28 -3.8 °C -12.4 °C 1030.4 hPa West 0.6 km/h 7.4 km/h 51 % 0 mm
21:31 -3.8 °C -12.2 °C 1030.4 hPa WNW 4.8 km/h 12.9 km/h 52 % 0 mm
21:36 -3.8 °C -12.3 °C 1030.4 hPa WNW 4.8 km/h 11.3 km/h 52 % 0 mm
21:41 -3.8 °C -12.3 °C 1030.4 hPa WNW 7.6 km/h 13 km/h 52 % 0 mm
21:42 -3.8 °C -12.4 °C 1030.4 hPa NW 4.5 km/h 13 km/h 51 % 0 mm
21:43 -3.8 °C -12.5 °C 1030.4 hPa NW 1 km/h 5.6 km/h 51 % 0 mm
21:48 -3.8 °C -12.2 °C 1030.4 hPa WNW 4.8 km/h 11.3 km/h 52 % 0 mm
21:49 -3.8 °C -12.2 °C 1030.4 hPa WNW 7.1 km/h 11.1 km/h 52 % 0 mm
21:53 -3.8 °C -12.2 °C 1030.4 hPa WNW 2.1 km/h 6.4 km/h 52 % 0 mm
21:58 -3.8 °C -12.3 °C 1030.4 hPa WSW 4.3 km/h 7.4 km/h 52 % 0 mm
22:03 -3.8 °C -12.3 °C 1030.4 hPa WNW 5.1 km/h 13 km/h 52 % 0 mm
22:04 -3.8 °C -12.3 °C 1030.4 hPa WSW 3.5 km/h 8 km/h 52 % 0 mm
22:08 -3.8 °C -12.3 °C 1030.4 hPa WNW 5.6 km/h 9.7 km/h 52 % 0 mm
22:15 -3.8 °C -12.3 °C 1030.4 hPa WNW 4.3 km/h 8 km/h 52 % 0 mm
22:20 -3.9 °C -12.3 °C 1030.4 hPa WNW 3.4 km/h 7.4 km/h 52 % 0 mm
22:25 -3.9 °C -12.3 °C 1030.7 hPa NW 5.1 km/h 9.3 km/h 52 % 0 mm
22:29 -3.9 °C -12.3 °C 1030.4 hPa WNW 7.9 km/h 11.1 km/h 52 % 0 mm
22:34 -3.9 °C -12.4 °C 1030.7 hPa West 5 km/h 7.4 km/h 52 % 0 mm
22:35 -3.9 °C -12.3 °C 1030.7 hPa NW 1.9 km/h 7.4 km/h 52 % 0 mm
22:40 -3.9 °C -12.1 °C 1030.7 hPa WNW 3.9 km/h 7.4 km/h 53 % 0 mm
22:41 -3.9 °C -12.1 °C 1030.7 hPa WNW 3.2 km/h 9.7 km/h 53 % 0 mm
22:42 -3.9 °C -12.1 °C 1030.7 hPa WNW 4.2 km/h 7.4 km/h 53 % 0 mm
22:48 -4 °C -12.2 °C 1030.7 hPa NNW 2.6 km/h 8 km/h 53 % 0 mm
22:52 -4 °C -12.2 °C 1030.7 hPa NW 2.6 km/h 9.3 km/h 53 % 0 mm
22:53 -4 °C -11.9 °C 1030.7 hPa NW 4.2 km/h 11.3 km/h 54 % 0 mm
22:58 -4.1 °C -12.2 °C 1030.7 hPa WNW 1.9 km/h 5.6 km/h 53 % 0 mm
23:00 -4.1 °C -12 °C 1030.7 hPa WSW 1.6 km/h 7.4 km/h 54 % 0 mm
23:05 -4.1 °C -12 °C 1030.7 hPa WNW 7.4 km/h 14.8 km/h 54 % 0 mm
23:07 -4.1 °C -12.1 °C 1030.7 hPa NW 7.1 km/h 12.9 km/h 54 % 0 mm
23:11 -4.1 °C -12.1 °C 1030.7 hPa WNW 3.5 km/h 11.1 km/h 54 % 0 mm
23:13 -4.1 °C -12.1 °C 1030.4 hPa West 10.5 km/h 14.5 km/h 54 % 0 mm
23:18 -4.1 °C -12.1 °C 1030.4 hPa NW 8 km/h 13 km/h 54 % 0 mm
23:23 -4.1 °C -12.1 °C 1030.4 hPa NW 1.9 km/h 9.3 km/h 54 % 0 mm
23:25 -4.1 °C -12.1 °C 1030.4 hPa NW 6.6 km/h 11.1 km/h 54 % 0 mm
23:27 -4.2 °C -11.9 °C 1030.4 hPa WNW 3.9 km/h 7.4 km/h 55 % 0 mm
23:32 -4.2 °C -11.9 °C 1030.4 hPa NNE 3.4 km/h 5.6 km/h 55 % 0 mm
23:37 -4.2 °C -11.7 °C 1030.4 hPa WNW 3.9 km/h 5.6 km/h 56 % 0 mm
23:41 -4.2 °C -11.7 °C 1030.4 hPa WNW 8.5 km/h 16.7 km/h 56 % 0 mm
23:46 -4.2 °C -11.9 °C 1030.7 hPa NW 5 km/h 14.8 km/h 55 % 0 mm
23:47 -4.2 °C -11.7 °C 1030.7 hPa WNW 5 km/h 11.1 km/h 56 % 0 mm
23:52 -4.2 °C -11.9 °C 1031 hPa NW 7.7 km/h 22.2 km/h 55 % 0 mm
23:57 -4.3 °C -12 °C 1031 hPa WNW 8 km/h 11.1 km/h 55 % 0 mm
Crab Meadow Weather
Compliments of Weather Underground - 3.75 mb

Script developed by  Jim McMurry - jmcmurry@mwt.net Adapted for the template by  Wim van der Kuil - Leuven-Template.eu

Temperature: You can tell the temperature by counting the clicks a cricket makes in 15 seconds and adding 37!